| time (UTC) | temp F | wind direction | speed MPH | gust MPH | rain 1hr in | rain 24hr in | rain mn in | humidity % | barometer mb |
| 20260507201148 | 67 | 303 | 8.0 | 10.0 | 0.00 | 0.00 | 0.00 | 33 | 1009.3 |
| 20260507200644 | 68 | 17 | 3.0 | 4.0 | 0.00 | 0.00 | 0.00 | 35 | 1009.4 |
| 20260507200140 | 67 | 29 | 6.0 | 11.0 | 0.00 | 0.00 | 0.00 | 34 | 1009.4 |
| 20260507195637 | 67 | 341 | 9.0 | 16.0 | 0.00 | 0.00 | 0.00 | 34 | 1009.4 |
| 20260507195134 | 68 | 322 | 4.0 | 10.0 | 0.00 | 0.00 | 0.00 | 35 | 1009.0 |
| 20260507194631 | 67 | 120 | 3.0 | 8.0 | 0.00 | 0.00 | 0.00 | 35 | 1009.2 |
| 20260507194126 | 66 | 304 | 2.0 | 3.0 | 0.00 | 0.00 | 0.00 | 35 | 1009.3 |
| 20260507193624 | 66 | 317 | 5.0 | 8.0 | 0.00 | 0.00 | 0.00 | 34 | 1009.5 |
| 20260507193121 | 68 | 27 | 1.0 | 4.0 | 0.00 | 0.00 | 0.00 | 33 | 1009.2 |
| 20260507192617 | 68 | 37 | 7.0 | 10.0 | 0.00 | 0.00 | 0.00 | 32 | 1009.4 |
| 20260507192114 | 69 | 330 | 4.0 | 7.0 | 0.00 | 0.00 | 0.00 | 32 | 1009.6 |
| 20260507191610 | 68 | 288 | 3.0 | 6.0 | 0.00 | 0.00 | 0.00 | 37 | 1009.4 |
| 20260507191107 | 67 | 30 | 2.0 | 7.0 | 0.00 | 0.00 | 0.00 | 34 | 1009.6 |
| 20260507190604 | 67 | 322 | 3.0 | 10.0 | 0.00 | 0.00 | 0.00 | 34 | 1009.7 |
| 20260507185601 | 66 | 318 | 2.0 | 8.0 | 0.00 | 0.00 | 0.00 | 34 | 1009.6 |
| 20260507185057 | 67 | 328 | 7.0 | 9.0 | 0.00 | 0.00 | 0.00 | 35 | 1009.8 |
| 20260507184555 | 67 | 326 | 5.0 | 7.0 | 0.00 | 0.00 | 0.00 | 39 | 1009.6 |
| 20260507184052 | 66 | 284 | 3.0 | 6.0 | 0.00 | 0.00 | 0.00 | 36 | 1010.0 |
| 20260507183548 | 66 | 359 | 6.0 | 11.0 | 0.00 | 0.00 | 0.00 | 36 | 1009.6 |
| 20260507183046 | 65 | 338 | 9.0 | 13.0 | 0.00 | 0.00 | 0.00 | 36 | 1009.8 |
| 20260507182542 | 64 | 269 | 3.0 | 7.0 | 0.00 | 0.00 | 0.00 | 37 | 1009.8 |
| 20260507182038 | 64 | 30 | 9.0 | 14.0 | 0.00 | 0.00 | 0.00 | 37 | 1010.0 |
| 20260507181535 | 64 | 78 | 1.0 | 3.0 | 0.00 | 0.00 | 0.00 | 40 | 1010.0 |
| 20260507181031 | 65 | 162 | 1.0 | 7.0 | 0.00 | 0.00 | 0.00 | 42 | 1010.0 |
| 20260507180527 | 65 | 129 | 4.0 | 6.0 | 0.00 | 0.00 | 0.00 | 39 | 1010.0 |
| 20260507180025 | 65 | 261 | 2.0 | 6.0 | 0.00 | 0.00 | 0.00 | 42 | 1010.2 |
| 20260507175521 | 66 | 241 | 6.0 | 9.0 | 0.00 | 0.00 | 0.00 | 38 | 1010.2 |
| 20260507175019 | 64 | 327 | 7.0 | 10.0 | 0.00 | 0.00 | 0.00 | 40 | 1010.3 |
| 20260507174515 | 64 | 303 | 1.0 | 7.0 | 0.00 | 0.00 | 0.00 | 41 | 1010.4 |
| 20260507174013 | 63 | 296 | 4.0 | 11.0 | 0.00 | 0.00 | 0.00 | 42 | 1010.4 |
| 20260507173510 | 64 | 341 | 5.0 | 6.0 | 0.00 | 0.00 | 0.00 | 42 | 1010.8 |
| 20260507173007 | 64 | 307 | 6.0 | 9.0 | 0.00 | 0.00 | 0.00 | 42 | 1010.5 |
| 20260507172503 | 64 | 311 | 4.0 | 6.0 | 0.00 | 0.00 | 0.00 | 45 | 1010.8 |
| 20260507172000 | 63 | 330 | 1.0 | 3.0 | 0.00 | 0.00 | 0.00 | 45 | 1011.0 |
| 20260507171455 | 63 | 79 | 2.0 | 6.0 | 0.00 | 0.00 | 0.00 | 44 | 1011.1 |
| 20260507170953 | 61 | 266 | 4.0 | 9.0 | 0.00 | 0.00 | 0.00 | 45 | 1011.0 |
| 20260507170449 | 62 | 271 | 6.0 | 9.0 | 0.00 | 0.00 | 0.00 | 45 | 1011.3 |
| 20260507165946 | 63 | 322 | 7.0 | 10.0 | 0.00 | 0.00 | 0.00 | 43 | 1011.3 |
| 20260507165442 | 63 | 298 | 5.0 | 10.0 | 0.00 | 0.00 | 0.00 | 43 | 1011.4 |
| 20260507164938 | 63 | 334 | 4.0 | 8.0 | 0.00 | 0.00 | 0.00 | 43 | 1011.5 |
| 20260507164435 | 63 | 343 | 5.0 | 7.0 | 0.00 | 0.00 | 0.00 | 45 | 1011.4 |
| 20260507163932 | 64 | 278 | 2.0 | 7.0 | 0.00 | 0.00 | 0.00 | 42 | 1011.5 |
| 20260507163429 | 62 | 330 | 2.0 | 2.0 | 0.00 | 0.00 | 0.00 | 45 | 1011.5 |
| 20260507162926 | 63 | 341 | 3.0 | 7.0 | 0.00 | 0.00 | 0.00 | 44 | 1011.6 |
| 20260507162421 | 60 | 44 | 3.0 | 4.0 | 0.00 | 0.00 | 0.00 | 46 | 1011.8 |
| 20260507161919 | 60 | 341 | 4.0 | 9.0 | 0.00 | 0.00 | 0.00 | 45 | 1011.8 |
| 20260507161415 | 61 | 8 | 9.0 | 10.0 | 0.00 | 0.00 | 0.00 | 45 | 1011.9 |
| 20260507160912 | 61 | 259 | 2.0 | 2.0 | 0.00 | 0.00 | 0.00 | 46 | 1011.9 |
| 20260507160408 | 61 | 296 | 4.0 | 6.0 | 0.00 | 0.00 | 0.00 | 48 | 1012.2 |
| 20260507155904 | 60 | 78 | 0.0 | 3.0 | 0.00 | 0.00 | 0.00 | 49 | 1012.2 |
| 20260507155400 | 60 | 241 | 5.0 | 7.0 | 0.00 | 0.00 | 0.00 | 49 | 1012.2 |
| 20260507154857 | 60 | 301 | 4.0 | 7.0 | 0.00 | 0.00 | 0.00 | 50 | 1012.3 |
| 20260507154354 | 60 | 214 | 2.0 | 7.0 | 0.00 | 0.00 | 0.00 | 55 | 1012.4 |
| 20260507153851 | 60 | 48 | 4.0 | 7.0 | 0.00 | 0.00 | 0.00 | 48 | 1012.4 |
| 20260507153347 | 58 | 247 | 1.0 | 4.0 | 0.00 | 0.00 | 0.00 | 49 | 1012.6 |
| 20260507152844 | 59 | 104 | 2.0 | 4.0 | 0.00 | 0.00 | 0.00 | 50 | 1012.7 |
| 20260507152340 | 58 | 276 | 0.0 | 3.0 | 0.00 | 0.00 | 0.00 | 53 | 1012.5 |
| 20260507151836 | 58 | 16 | 2.0 | 6.0 | 0.00 | 0.00 | 0.00 | 49 | 1012.7 |
| 20260507151332 | 57 | 295 | 4.0 | 8.0 | 0.00 | 0.00 | 0.00 | 53 | 1012.7 |
| 20260507150830 | 57 | 338 | 6.0 | 11.0 | 0.00 | 0.00 | 0.00 | 50 | 1012.9 |
| 20260507150326 | 57 | 159 | 3.0 | 3.0 | 0.00 | 0.00 | 0.00 | 50 | 1013.1 |
| 20260507145822 | 56 | 335 | 5.0 | 7.0 | 0.00 | 0.00 | 0.00 | 49 | 1013.3 |
| 20260507145319 | 57 | 62 | 2.0 | 7.0 | 0.00 | 0.00 | 0.00 | 48 | 1013.2 |
| 20260507144816 | 57 | 307 | 2.0 | 4.0 | 0.00 | 0.00 | 0.00 | 53 | 1013.4 |
| 20260507144313 | 58 | 303 | 4.0 | 6.0 | 0.00 | 0.00 | 0.00 | 48 | 1013.4 |
| 20260507143810 | 57 | 326 | 1.0 | 3.0 | 0.00 | 0.00 | 0.00 | 50 | 1013.4 |
| 20260507143307 | 57 | 355 | 3.0 | 7.0 | 0.00 | 0.00 | 0.00 | 53 | 1013.5 |
| 20260507142803 | 56 | 93 | 2.0 | 7.0 | 0.00 | 0.00 | 0.00 | 53 | 1013.7 |
| 20260507142300 | 55 | 340 | 6.0 | 8.0 | 0.00 | 0.00 | 0.00 | 51 | 1013.6 |
| 20260507141756 | 56 | 31 | 1.0 | 3.0 | 0.00 | 0.00 | 0.00 | 51 | 1013.7 |
| 20260507141254 | 55 | 322 | 1.0 | 2.0 | 0.00 | 0.00 | 0.00 | 54 | 1013.8 |
| 20260507140749 | 54 | 30 | 2.0 | 4.0 | 0.00 | 0.00 | 0.00 | 56 | 1013.9 |
| 20260507140247 | 54 | 49 | 2.0 | 4.0 | 0.00 | 0.00 | 0.00 | 55 | 1014.0 |
| 20260507135744 | 55 | 25 | 0.0 | 2.0 | 0.00 | 0.00 | 0.00 | 58 | 1014.1 |
| 20260507135241 | 55 | 25 | 1.0 | 2.0 | 0.00 | 0.00 | 0.00 | 56 | 1013.9 |
| 20260507134737 | 53 | 25 | 1.0 | 3.0 | 0.00 | 0.00 | 0.00 | 57 | 1014.0 |
| 20260507134234 | 53 | 116 | 1.0 | 2.0 | 0.00 | 0.00 | 0.00 | 57 | 1014.3 |
| 20260507133730 | 53 | 26 | 2.0 | 2.0 | 0.00 | 0.00 | 0.00 | 59 | 1014.3 |
| 20260507133227 | 53 | 87 | 4.0 | 6.0 | 0.00 | 0.00 | 0.00 | 56 | 1014.5 |
| 20260507132724 | 52 | 101 | 0.0 | 2.0 | 0.00 | 0.00 | 0.00 | 62 | 1014.3 |
| 20260507132221 | 52 | 321 | 2.0 | 3.0 | 0.00 | 0.00 | 0.00 | 60 | 1014.4 |
| 20260507131717 | 52 | 19 | 4.0 | 6.0 | 0.00 | 0.00 | 0.00 | 60 | 1014.4 |
| 20260507131215 | 52 | 27 | 2.0 | 3.0 | 0.00 | 0.00 | 0.00 | 60 | 1014.5 |
| 20260507130712 | 52 | 43 | 2.0 | 3.0 | 0.00 | 0.00 | 0.00 | 62 | 1014.3 |
| 20260507130210 | 52 | 20 | 4.0 | 6.0 | 0.00 | 0.00 | 0.00 | 60 | 1014.5 |
| 20260507125708 | 53 | 113 | 0.0 | 1.0 | 0.00 | 0.00 | 0.00 | 60 | 1014.5 |
| 20260507125205 | 52 | 47 | 1.0 | 1.0 | 0.00 | 0.00 | 0.00 | 61 | 1014.3 |
| 20260507124701 | 53 | 355 | 0.0 | 1.0 | 0.00 | 0.00 | 0.00 | 59 | 1014.4 |
| 20260507124159 | 53 | 9 | 1.0 | 1.0 | 0.00 | 0.00 | 0.00 | 63 | 1014.6 |
| 20260507123657 | 51 | 61 | 0.0 | 1.0 | 0.00 | 0.00 | 0.00 | 66 | 1014.5 |
| 20260507123154 | 51 | 57 | 1.0 | 1.0 | 0.00 | 0.00 | 0.00 | 65 | 1014.8 |
| 20260507122649 | 51 | 57 | 0.0 | 1.0 | 0.00 | 0.00 | 0.00 | 66 | 1014.6 |
| 20260507122145 | 51 | 57 | 0.0 | 1.0 | 0.00 | 0.00 | 0.00 | 68 | 1014.6 |
| 20260507121641 | 51 | 43 | 0.0 | 1.0 | 0.00 | 0.00 | 0.00 | 66 | 1014.7 |
| 20260507121137 | 50 | 47 | 0.0 | 1.0 | 0.00 | 0.00 | 0.00 | 68 | 1014.6 |
| 20260507120634 | 50 | 94 | 2.0 | 2.0 | 0.00 | 0.00 | 0.00 | 65 | 1014.4 |
| 20260507120130 | 50 | 115 | 0.0 | 2.0 | 0.00 | 0.00 | 0.00 | 67 | 1014.4 |
| 20260507115627 | 50 | 80 | 1.0 | 3.0 | 0.00 | 0.00 | 0.00 | 65 | 1014.1 |
| 20260507115122 | 50 | 84 | 0.0 | 3.0 | 0.00 | 0.00 | 0.00 | 67 | 1014.3 |
| 20260507114618 | 50 | 114 | 2.0 | 4.0 | 0.00 | 0.00 | 0.00 | 67 | 1014.2 |
| 20260507114116 | 50 | 110 | 0.0 | 2.0 | 0.00 | 0.00 | 0.00 | 68 | 1014.2 |
| 20260507113613 | 49 | 109 | 1.0 | 2.0 | 0.00 | 0.00 | 0.00 | 68 | 1014.3 |
| 20260507113110 | 49 | 90 | 1.0 | 3.0 | 0.00 | 0.00 | 0.00 | 69 | 1014.3 |
| 20260507112608 | 49 | 92 | 0.0 | 0.0 | 0.00 | 0.00 | 0.00 | 74 | 1014.0 |
| 20260507112104 | 49 | 92 | 0.0 | 2.0 | 0.00 | 0.00 | 0.00 | 73 | 1014.0 |
| 20260507111602 | 49 | 67 | 0.0 | 1.0 | 0.00 | 0.00 | 0.00 | 76 | 1014.0 |
| 20260507111058 | 50 | 67 | 0.0 | 1.0 | 0.00 | 0.00 | 0.00 | 76 | 1014.0 |
| 20260507110554 | 50 | 67 | 0.0 | 1.0 | 0.00 | 0.00 | 0.00 | 77 | 1014.0 |
| 20260507110051 | 50 | 67 | 1.0 | 2.0 | 0.00 | 0.00 | 0.00 | 77 | 1013.8 |
| 20260507105548 | 50 | 25 | 0.0 | 0.0 | 0.00 | 0.00 | 0.00 | 78 | 1013.9 |
| 20260507105044 | 50 | 25 | 0.0 | 0.0 | 0.00 | 0.00 | 0.00 | 77 | 1013.9 |
| 20260507104542 | 50 | 25 | 0.0 | 0.0 | 0.00 | 0.00 | 0.00 | 77 | 1013.8 |
| 20260507104038 | 50 | 25 | 0.0 | 1.0 | 0.00 | 0.00 | 0.00 | 75 | 1013.7 |
| 20260507103534 | 50 | 25 | 1.0 | 3.0 | 0.00 | 0.00 | 0.00 | 75 | 1013.9 |
| 20260507103031 | 50 | 344 | 1.0 | 1.0 | 0.00 | 0.00 | 0.00 | 76 | 1013.6 |
| 20260507102527 | 50 | 61 | 1.0 | 4.0 | 0.00 | 0.00 | 0.00 | 75 | 1013.5 |
| 20260507102023 | 50 | 16 | 2.0 | 4.0 | 0.00 | 0.00 | 0.00 | 77 | 1013.3 |
| 20260507101519 | 50 | 48 | 0.0 | 0.0 | 0.00 | 0.00 | 0.00 | 77 | 1013.4 |
| 20260507101016 | 50 | 128 | 1.0 | 1.0 | 0.00 | 0.00 | 0.00 | 77 | 1013.2 |
| 20260507100513 | 50 | 90 | 0.0 | 2.0 | 0.00 | 0.00 | 0.00 | 78 | 1013.3 |
| 20260507100011 | 50 | 92 | 0.0 | 2.0 | 0.00 | 0.00 | 0.00 | 79 | 1013.2 |
| 20260507095509 | 50 | 6 | 0.0 | 2.0 | 0.00 | 0.00 | 0.00 | 81 | 1013.3 |
| 20260507095005 | 51 | 358 | 0.0 | 0.0 | 0.00 | 0.00 | 0.00 | 81 | 1013.4 |
| 20260507094501 | 51 | 27 | 1.0 | 2.0 | 0.00 | 0.00 | 0.00 | 81 | 1013.2 |
| 20260507093959 | 51 | 108 | 0.0 | 1.0 | 0.00 | 0.00 | 0.00 | 81 | 1013.2 |
| 20260507093456 | 51 | 324 | 0.0 | 3.0 | 0.00 | 0.00 | 0.00 | 82 | 1013.1 |
| 20260507092954 | 51 | 94 | 0.0 | 2.0 | 0.00 | 0.00 | 0.00 | 84 | 1013.3 |
| 20260507092450 | 51 | 94 | 0.0 | 3.0 | 0.00 | 0.00 | 0.00 | 84 | 1013.1 |
| 20260507091947 | 51 | 94 | 1.0 | 2.0 | 0.00 | 0.00 | 0.00 | 84 | 1013.0 |
| 20260507091444 | 51 | 94 | 1.0 | 3.0 | 0.00 | 0.00 | 0.00 | 85 | 1012.9 |
| 20260507090940 | 51 | 127 | 0.0 | 0.0 | 0.00 | 0.00 | 0.00 | 86 | 1013.1 |
| 20260507090436 | 51 | 127 | 0.0 | 0.0 | 0.00 | 0.00 | 0.00 | 88 | 1013.0 |
| 20260507085932 | 51 | 127 | 0.0 | 0.0 | 0.00 | 0.00 | 0.00 | 87 | 1013.1 |
| 20260507085430 | 51 | 127 | 0.0 | 0.0 | 0.00 | 0.00 | 0.00 | 86 | 1013.2 |
| 20260507084927 | 51 | 127 | 0.0 | 0.0 | 0.00 | 0.00 | 0.00 | 86 | 1013.3 |
| 20260507084424 | 51 | 127 | 0.0 | 0.0 | 0.00 | 0.00 | 0.00 | 85 | 1013.2 |
| 20260507083921 | 51 | 127 | 0.0 | 2.0 | 0.00 | 0.00 | 0.00 | 85 | 1013.2 |
| 20260507083417 | 51 | 127 | 1.0 | 1.0 | 0.00 | 0.00 | 0.00 | 83 | 1013.1 |
| 20260507082913 | 51 | 127 | 0.0 | 0.0 | 0.00 | 0.00 | 0.00 | 85 | 1013.1 |
| 20260507082409 | 51 | 127 | 0.0 | 0.0 | 0.00 | 0.00 | 0.00 | 83 | 1013.2 |
| 20260507081906 | 51 | 127 | 0.0 | 0.0 | 0.00 | 0.00 | 0.00 | 83 | 1013.1 |
| 20260507081402 | 51 | 127 | 0.0 | 0.0 | 0.00 | 0.00 | 0.00 | 84 | 1013.0 |
| 20260507080859 | 51 | 127 | 0.0 | 0.0 | 0.00 | 0.00 | 0.00 | 84 | 1013.2 |
| 20260507080355 | 51 | 127 | 0.0 | 0.0 | 0.00 | 0.00 | 0.00 | 84 | 1013.0 |
| 20260507075851 | 51 | 127 | 0.0 | 0.0 | 0.00 | 0.00 | 0.00 | 86 | 1013.2 |
| 20260507075347 | 51 | 127 | 0.0 | 0.0 | 0.00 | 0.00 | 0.00 | 85 | 1013.0 |
| 20260507074844 | 51 | 127 | 0.0 | 1.0 | 0.00 | 0.00 | 0.00 | 82 | 1012.7 |
| 20260507074341 | 51 | 127 | 0.0 | 0.0 | 0.00 | 0.00 | 0.00 | 84 | 1012.7 |
| 20260507073838 | 51 | 127 | 0.0 | 0.0 | 0.00 | 0.00 | 0.00 | 84 | 1012.8 |
| 20260507073335 | 51 | 127 | 0.0 | 0.0 | 0.00 | 0.00 | 0.00 | 82 | 1012.7 |
| 20260507072832 | 51 | 128 | 1.0 | 1.0 | 0.00 | 0.00 | 0.00 | 83 | 1012.8 |
| 20260507072329 | 51 | 127 | 0.0 | 0.0 | 0.00 | 0.00 | 0.00 | 83 | 1012.9 |
| 20260507071827 | 51 | 127 | 2.0 | 2.0 | 0.00 | 0.00 | 0.00 | 83 | 1012.7 |
| 20260507071324 | 51 | 127 | 0.0 | 1.0 | 0.00 | 0.00 | 0.00 | 84 | 1012.8 |
| 20260507070820 | 51 | 127 | 0.0 | 0.0 | 0.00 | 0.00 | 0.00 | 84 | 1012.9 |
| 20260507070318 | 51 | 128 | 0.0 | 0.0 | 0.00 | 0.00 | 0.00 | 82 | 1012.7 |
| 20260507065814 | 52 | 127 | 0.0 | 0.0 | 0.00 | 0.00 | 0.00 | 83 | 1012.8 |
| 20260507065311 | 52 | 127 | 0.0 | 0.0 | 0.00 | 0.00 | 0.00 | 82 | 1012.7 |
| 20260507064808 | 52 | 127 | 0.0 | 0.0 | 0.00 | 0.00 | 0.00 | 81 | 1012.9 |
| 20260507064307 | 52 | 127 | 0.0 | 0.0 | 0.00 | 0.00 | 0.00 | 83 | 1012.7 |
| 20260507063804 | 51 | 128 | 2.0 | 3.0 | 0.00 | 0.00 | 0.00 | 83 | 1012.8 |
| 20260507063301 | 52 | 127 | 0.0 | 1.0 | 0.00 | 0.00 | 0.00 | 85 | 1013.3 |
| 20260507062757 | 52 | 127 | 1.0 | 1.0 | 0.00 | 0.00 | 0.00 | 84 | 1013.5 |
| 20260507062254 | 51 | 128 | 1.0 | 2.0 | 0.00 | 0.00 | 0.00 | 83 | 1013.4 |
| 20260507061752 | 51 | 127 | 0.0 | 0.0 | 0.00 | 0.00 | 0.00 | 84 | 1013.4 |
| 20260507061250 | 51 | 127 | 0.0 | 1.0 | 0.00 | 0.00 | 0.00 | 85 | 1013.3 |
| 20260507060748 | 51 | 128 | 1.0 | 2.0 | 0.00 | 0.00 | 0.00 | 86 | 1013.4 |
| 20260507060244 | 52 | 128 | 1.0 | 2.0 | 0.00 | 0.00 | 0.00 | 85 | 1013.4 |
| 20260507055741 | 52 | 127 | 0.0 | 2.0 | 0.00 | 0.00 | 0.00 | 84 | 1013.5 |
| 20260507055236 | 51 | 128 | 1.0 | 2.0 | 0.00 | 0.00 | 0.00 | 86 | 1013.5 |
| 20260507054733 | 51 | 302 | 2.0 | 8.0 | 0.00 | 0.00 | 0.00 | 83 | 1013.4 |
| 20260507054230 | 51 | 122 | 0.0 | 0.0 | 0.00 | 0.00 | 0.00 | 86 | 1013.5 |
| 20260507053727 | 51 | 122 | 0.0 | 3.0 | 0.00 | 0.00 | 0.00 | 85 | 1013.6 |
| 20260507053225 | 51 | 122 | 0.0 | 0.0 | 0.00 | 0.00 | 0.00 | 87 | 1013.4 |
| 20260507052724 | 51 | 122 | 0.0 | 1.0 | 0.00 | 0.00 | 0.00 | 87 | 1013.5 |
| 20260507052219 | 51 | 132 | 2.0 | 6.0 | 0.00 | 0.00 | 0.00 | 89 | 1013.4 |
| 20260507051718 | 51 | 67 | 1.0 | 2.0 | 0.00 | 0.00 | 0.00 | 87 | 1013.5 |
| 20260507051214 | 51 | 56 | 0.0 | 3.0 | 0.00 | 0.00 | 0.00 | 86 | 1013.5 |
| 20260507050711 | 51 | 27 | 1.0 | 1.0 | 0.00 | 0.00 | 0.00 | 89 | 1013.3 |
| 20260507050208 | 51 | 27 | 0.0 | 0.0 | 0.00 | 0.00 | 0.00 | 90 | 1013.1 |
| 20260507045704 | 51 | 2 | 1.0 | 1.0 | 0.00 | 0.00 | 0.00 | 90 | 1013.3 |
| 20260507045200 | 51 | 66 | 1.0 | 3.0 | 0.00 | 0.00 | 0.00 | 90 | 1013.1 |
| 20260507044658 | 51 | 92 | 0.0 | 2.0 | 0.00 | 0.00 | 0.00 | 91 | 1013.2 |
| 20260507044154 | 51 | 13 | 0.0 | 4.0 | 0.00 | 0.00 | 0.00 | 91 | 1013.0 |
| 20260507043651 | 51 | 97 | 2.0 | 3.0 | 0.00 | 0.00 | 0.00 | 91 | 1013.0 |
| 20260507043148 | 51 | 42 | 0.0 | 1.0 | 0.00 | 0.00 | 0.00 | 90 | 1013.1 |
| 20260507042644 | 52 | 36 | 3.0 | 6.0 | 0.00 | 0.00 | 0.00 | 88 | 1013.0 |
| 20260507042139 | 52 | 24 | 2.0 | 6.0 | 0.00 | 0.00 | 0.00 | 87 | 1013.3 |
| 20260507041636 | 53 | 27 | 1.0 | 4.0 | 0.00 | 0.00 | 0.00 | 87 | 1013.1 |
| 20260507041133 | 53 | 76 | 0.0 | 4.0 | 0.00 | 0.00 | 0.00 | 86 | 1013.2 |
| 20260507040630 | 53 | 52 | 1.0 | 3.0 | 0.00 | 0.00 | 0.00 | 87 | 1012.9 |
| 20260507040126 | 53 | 110 | 1.0 | 4.0 | 0.00 | 0.06 | 0.06 | 87 | 1012.7 |
| 20260507035622 | 53 | 90 | 5.0 | 7.0 | 0.00 | 0.06 | 0.06 | 88 | 1012.5 |
| 20260507035118 | 54 | 148 | 3.0 | 3.0 | 0.00 | 0.06 | 0.06 | 88 | 1013.2 |
| 20260507034615 | 54 | 71 | 2.0 | 7.0 | 0.00 | 0.06 | 0.06 | 87 | 1013.1 |
| 20260507034113 | 54 | 347 | 3.0 | 4.0 | 0.00 | 0.06 | 0.06 | 87 | 1013.1 |
| 20260507033611 | 54 | 49 | 2.0 | 4.0 | 0.00 | 0.06 | 0.06 | 87 | 1013.3 |
| 20260507033108 | 54 | 353 | 2.0 | 3.0 | 0.00 | 0.06 | 0.06 | 87 | 1012.8 |
| 20260507032605 | 54 | 83 | 0.0 | 2.0 | 0.00 | 0.06 | 0.06 | 87 | 1012.7 |
| 20260507032101 | 54 | 89 | 4.0 | 7.0 | 0.00 | 0.06 | 0.06 | 87 | 1012.8 |
| 20260507031558 | 54 | 138 | 1.0 | 2.0 | 0.00 | 0.06 | 0.06 | 87 | 1012.9 |
| 20260507031055 | 55 | 132 | 4.0 | 6.0 | 0.00 | 0.06 | 0.06 | 87 | 1012.6 |
| 20260507030551 | 55 | 126 | 1.0 | 4.0 | 0.00 | 0.06 | 0.06 | 87 | 1012.9 |
| 20260507030049 | 55 | 42 | 0.0 | 1.0 | 0.00 | 0.06 | 0.06 | 85 | 1013.3 |
| 20260507025546 | 55 | 42 | 1.0 | 4.0 | 0.00 | 0.06 | 0.06 | 85 | 1013.5 |
| 20260507025043 | 55 | 26 | 2.0 | 3.0 | 0.00 | 0.06 | 0.06 | 85 | 1013.1 |
| 20260507024541 | 55 | 354 | 2.0 | 2.0 | 0.00 | 0.06 | 0.06 | 85 | 1012.5 |
| 20260507024038 | 55 | 28 | 3.0 | 4.0 | 0.00 | 0.06 | 0.06 | 85 | 1012.7 |
| 20260507023533 | 55 | 23 | 2.0 | 4.0 | 0.00 | 0.06 | 0.06 | 86 | 1012.8 |
| 20260507023031 | 56 | 73 | 1.0 | 4.0 | 0.00 | 0.06 | 0.06 | 84 | 1012.8 |
| 20260507022528 | 56 | 30 | 2.0 | 3.0 | 0.00 | 0.06 | 0.06 | 84 | 1012.4 |
| 20260507022029 | 56 | 104 | 2.0 | 4.0 | 0.00 | 0.06 | 0.06 | 84 | 1012.7 |
| 20260507021525 | 56 | 122 | 3.0 | 3.0 | 0.00 | 0.06 | 0.06 | 85 | 1012.6 |
| 20260507021022 | 56 | 20 | 1.0 | 3.0 | 0.00 | 0.06 | 0.06 | 85 | 1012.7 |
| 20260507020519 | 56 | 102 | 2.0 | 6.0 | 0.00 | 0.06 | 0.06 | 85 | 1012.5 |
| 20260507020015 | 56 | 56 | 3.0 | 3.0 | 0.00 | 0.06 | 0.06 | 84 | 1012.0 |
| 20260507015514 | 56 | 56 | 0.0 | 3.0 | 0.00 | 0.06 | 0.06 | 84 | 1012.8 |
| 20260507015011 | 56 | 56 | 0.0 | 3.0 | 0.00 | 0.06 | 0.06 | 84 | 1012.2 |
| 20260507014507 | 56 | 43 | 2.0 | 3.0 | 0.00 | 0.06 | 0.06 | 84 | 1012.0 |
| 20260507014003 | 56 | 43 | 2.0 | 6.0 | 0.00 | 0.06 | 0.06 | 84 | 1011.9 |
| 20260507013500 | 57 | 97 | 0.0 | 4.0 | 0.00 | 0.06 | 0.06 | 83 | 1011.8 |
| 20260507012957 | 57 | 109 | 1.0 | 3.0 | 0.00 | 0.06 | 0.06 | 84 | 1012.2 |
| 20260507012454 | 57 | 8 | 1.0 | 3.0 | 0.00 | 0.06 | 0.06 | 84 | 1012.2 |
| 20260507011951 | 57 | 123 | 1.0 | 3.0 | 0.00 | 0.06 | 0.06 | 83 | 1012.3 |
| 20260507011448 | 57 | 22 | 5.0 | 8.0 | 0.00 | 0.06 | 0.06 | 83 | 1012.2 |
| 20260507010943 | 57 | 84 | 1.0 | 2.0 | 0.00 | 0.06 | 0.06 | 83 | 1012.2 |
| 20260507010438 | 57 | 2 | 2.0 | 4.0 | 0.00 | 0.06 | 0.06 | 83 | 1011.9 |
| 20260507005935 | 57 | 54 | 1.0 | 2.0 | 0.00 | 0.06 | 0.06 | 84 | 1011.7 |
| 20260507005433 | 58 | 334 | 1.0 | 1.0 | 0.00 | 0.06 | 0.06 | 85 | 1011.8 |
| 20260507004929 | 58 | 115 | 2.0 | 3.0 | 0.00 | 0.06 | 0.06 | 84 | 1011.5 |
| 20260507004426 | 58 | 117 | 2.0 | 6.0 | 0.00 | 0.06 | 0.06 | 85 | 1011.7 |
| 20260507003923 | 58 | 116 | 2.0 | 4.0 | 0.00 | 0.06 | 0.06 | 86 | 1011.8 |
| 20260507003418 | 58 | 93 | 4.0 | 4.0 | 0.00 | 0.06 | 0.06 | 86 | 1011.6 |
| 20260507002914 | 58 | 106 | 1.0 | 3.0 | 0.00 | 0.06 | 0.06 | 85 | 1011.8 |
| 20260507002410 | 59 | 328 | 0.0 | 0.0 | 0.00 | 0.06 | 0.06 | 87 | 1012.2 |
| 20260507001907 | 59 | 328 | 1.0 | 1.0 | 0.00 | 0.06 | 0.06 | 87 | 1012.0 |
| 20260507001404 | 59 | 80 | 1.0 | 2.0 | 0.00 | 0.06 | 0.06 | 86 | 1011.9 |
| 20260507000902 | 59 | 80 | 0.0 | 2.0 | 0.00 | 0.06 | 0.06 | 86 | 1011.9 |
| 20260507000357 | 59 | 81 | 0.0 | 2.0 | 0.00 | 0.06 | 0.06 | 87 | 1011.6 |
| 20260506235853 | 59 | 81 | 0.0 | 3.0 | 0.00 | 0.06 | 0.06 | 86 | 1012.0 |
| 20260506235350 | 60 | 81 | 0.0 | 2.0 | 0.00 | 0.06 | 0.06 | 86 | 1011.5 |
| 20260506234845 | 60 | 81 | 1.0 | 1.0 | 0.00 | 0.06 | 0.06 | 86 | 1011.8 |
| 20260506234344 | 60 | 81 | 0.0 | 0.0 | 0.00 | 0.06 | 0.06 | 87 | 1011.5 |
| 20260506233841 | 60 | 81 | 0.0 | 0.0 | 0.00 | 0.06 | 0.06 | 85 | 1011.6 |
| 20260506233337 | 60 | 81 | 0.0 | 0.0 | 0.00 | 0.06 | 0.06 | 86 | 1011.5 |
| 20260506232834 | 60 | 81 | 0.0 | 0.0 | 0.00 | 0.06 | 0.06 | 86 | 1011.4 |
| 20260506232330 | 60 | 81 | 0.0 | 3.0 | 0.00 | 0.06 | 0.06 | 86 | 1011.4 |
| 20260506231826 | 60 | 81 | 0.0 | 1.0 | 0.00 | 0.06 | 0.06 | 86 | 1011.3 |
| 20260506231324 | 61 | 81 | 0.0 | 3.0 | 0.00 | 0.06 | 0.06 | 87 | 1011.0 |
| 20260506230821 | 61 | 112 | 0.0 | 3.0 | 0.00 | 0.06 | 0.06 | 86 | 1010.8 |
| 20260506230318 | 61 | 11 | 0.0 | 0.0 | 0.00 | 0.06 | 0.06 | 87 | 1010.6 |
| 20260506225814 | 61 | 11 | 0.0 | 3.0 | 0.00 | 0.06 | 0.06 | 87 | 1011.1 |
| 20260506225312 | 61 | 114 | 3.0 | 6.0 | 0.00 | 0.06 | 0.06 | 85 | 1010.8 |
| 20260506224808 | 62 | 112 | 2.0 | 3.0 | 0.00 | 0.06 | 0.06 | 87 | 1010.7 |
| 20260506224306 | 62 | 48 | 2.0 | 4.0 | 0.00 | 0.06 | 0.06 | 87 | 1010.8 |
| 20260506223802 | 62 | 20 | 0.0 | 0.0 | 0.00 | 0.06 | 0.06 | 86 | 1010.8 |
| 20260506223257 | 62 | 92 | 0.0 | 0.0 | 0.00 | 0.06 | 0.06 | 86 | 1010.8 |
| 20260506222754 | 63 | 1 | 0.0 | 0.0 | 0.00 | 0.06 | 0.06 | 85 | 1010.6 |
| 20260506222250 | 63 | 175 | 0.0 | 1.0 | 0.00 | 0.06 | 0.06 | 87 | 1010.6 |
| 20260506221748 | 63 | 127 | 1.0 | 3.0 | 0.00 | 0.06 | 0.06 | 87 | 1010.4 |
| 20260506221246 | 64 | 121 | 1.0 | 4.0 | 0.00 | 0.06 | 0.06 | 85 | 1010.2 |
| 20260506220743 | 64 | 8 | 0.0 | 2.0 | 0.00 | 0.06 | 0.06 | 86 | 1010.4 |
| 20260506220237 | 64 | 99 | 1.0 | 1.0 | 0.00 | 0.06 | 0.06 | 87 | 1010.5 |
| 20260506215735 | 64 | 98 | 0.0 | 2.0 | 0.00 | 0.06 | 0.06 | 87 | 1010.3 |
| 20260506215230 | 64 | 99 | 2.0 | 3.0 | 0.00 | 0.06 | 0.06 | 86 | 1010.2 |
| 20260506214727 | 64 | 44 | 1.0 | 4.0 | 0.00 | 0.06 | 0.06 | 85 | 1010.3 |
| 20260506214224 | 64 | 27 | 4.0 | 6.0 | 0.00 | 0.06 | 0.06 | 83 | 1009.9 |
| 20260506213722 | 65 | 65 | 1.0 | 3.0 | 0.00 | 0.06 | 0.06 | 82 | 1009.7 |
| 20260506213219 | 65 | 129 | 4.0 | 4.0 | 0.00 | 0.06 | 0.06 | 82 | 1009.9 |
| 20260506212716 | 66 | 355 | 2.0 | 3.0 | 0.00 | 0.06 | 0.06 | 80 | 1009.6 |
| 20260506212212 | 67 | 45 | 1.0 | 4.0 | 0.00 | 0.06 | 0.06 | 79 | 1009.2 |
| 20260506211707 | 66 | 352 | 4.0 | 9.0 | 0.00 | 0.06 | 0.06 | 80 | 1009.5 |
| 20260506211204 | 67 | 50 | 2.0 | 3.0 | 0.00 | 0.06 | 0.06 | 77 | 1009.5 |
| 20260506210701 | 67 | 324 | 2.0 | 6.0 | 0.00 | 0.06 | 0.06 | 75 | 1009.3 |
| 20260506210158 | 67 | 319 | 8.0 | 10.0 | 0.00 | 0.06 | 0.06 | 75 | 1009.3 |
| 20260506205655 | 68 | 48 | 0.0 | 7.0 | 0.00 | 0.06 | 0.06 | 73 | 1009.0 |
| 20260506205150 | 68 | 341 | 6.0 | 7.0 | 0.00 | 0.06 | 0.06 | 73 | 1009.4 |
| 20260506204648 | 69 | 347 | 5.0 | 7.0 | 0.00 | 0.06 | 0.06 | 72 | 1009.2 |
| 20260506204144 | 69 | 334 | 4.0 | 6.0 | 0.00 | 0.06 | 0.06 | 71 | 1008.9 |
| 20260506203643 | 69 | 352 | 6.0 | 9.0 | 0.00 | 0.06 | 0.06 | 70 | 1008.8 |
| 20260506203139 | 70 | 319 | 5.0 | 7.0 | 0.00 | 0.06 | 0.06 | 70 | 1008.9 |
| 20260506202637 | 70 | 275 | 4.0 | 10.0 | 0.00 | 0.06 | 0.06 | 68 | 1008.8 |
| 20260506202133 | 70 | 314 | 9.0 | 11.0 | 0.00 | 0.06 | 0.06 | 69 | 1008.7 |
| 20260506201630 | 71 | 329 | 2.0 | 7.0 | 0.00 | 0.06 | 0.06 | 66 | 1008.7 |